Regional Weather Roundup
Issued by NWS Goodland, KS

Home | Current Version | Previous Version | Text Only | Print | Product List | Glossary Off
Versions: 1 2 3 4 5 6 7 8 9 10 11 12 13 14 15 16 17 18 19 20 21 22 23 24 25 26 27 28 29 30 31 32 33 34 35 36 37 38 39 40 41 42 43 44 45 46 47 48 49 50

000
ASUS43 KGLD 310859
RWRGLD

GOODLAND FORECAST AREA HOURLY WEATHER ROUNDUP
NATIONAL WEATHER SERVICE GOODLAND KS
300 AM MDT MON AUG 31 2015

...OFFICIAL OBSERVATIONS...

CITY           SKY/WX    TMP DP  RH WIND       PRES   REMARKS
GOODLAND KS    CLEAR     61  51  70 S14       29.95F
HILL CITY KS   CLEAR     63  60  90 S5        29.94F
IMPERIAL NEB   CLEAR     68  47  46 S9        29.93S
MCCOOK NEB     CLEAR     66  55  67 S8        29.93F
AKRON CO       PTCLDY    68  47  46 SW12      29.97S
BURLINGTON CO  CLEAR     61  49  64 S14       29.97F
LIMON CO       PTCLDY    52  47  83 CALM      30.03S
$$

...UNOFFICIAL OBSERVATIONS...

CITY           SKY/WX    TMP DP  RH WIND       PRES   REMARKS
COLBY KS       CLEAR     64  57  77 S12       29.96F
GOVE KS          N/A     60  32  34 MISG        N/A
LENORA KS        N/A     60  32  34 MISG        N/A
NORTON KS      CLEAR     61  55  82 SE5       29.94S
SHARON SPRINGS   N/A     60  53  79 SE8         N/A
KIT CARSON CO    N/A     66  49  55 MISG        N/A
YUMA CO          N/A     66  49  54 S6G18       N/A
$$


USA.gov is the U.S. government's official web portal to all federal, state and local government web resources and services.